WetterOnline ( https://www.wetteronline.de )

Wetter aktuell Regen

Aktuelles Wetter: Zwiesel (613m)

6-stündlich | Neueste Meldungen
Ortszeit Temperatur Wetter
Mo, 06.02. 13:00 -3.7° C bedeckt
Mo, 06.02. 7:00 -14.3° C wolkenlos
Mo, 06.02. 1:00 -9.6° C fast wolkenlos
So, 05.02. 19:00 -4.3° C bedeckt
So, 05.02. 13:00 -0.1° C bedeckt
So, 05.02. 7:00 -11.0° C wolkig
So, 05.02. 1:00 -7.3° C wolkenlos
Sa, 04.02. 19:00 -1.7° C bewölkt
Ortszeit Temperatur Wetter
Mo, 06.02. 16:00 -1.9° C bedeckt
Mo, 06.02. 15:50 -1.9° C bedeckt
Mo, 06.02. 15:40 -1.8° C bedeckt
Mo, 06.02. 15:30 -1.9° C bewölkt
Mo, 06.02. 15:20 -1.9° C bewölkt
Mo, 06.02. 15:10 -1.3° C bewölkt
Mo, 06.02. 15:00 -2.3° C bewölkt
Mo, 06.02. 14:30 -2.6° C bedeckt
Mo, 06.02. 14:00 -2.3° C bewölkt
Mo, 06.02. 13:30 -3.5° C bedeckt
Mo, 06.02. 13:00 -3.7° C bedeckt
Ortszeit Relative Feuchte Sichtweite
Mo, 06.02. 13:00 68% 45 km
Mo, 06.02. 7:00 88% 35 km
Mo, 06.02. 1:00 91% 45 km
So, 05.02. 19:00 83% 35 km
So, 05.02. 13:00 59% 65 km
So, 05.02. 7:00 89% 50 km
So, 05.02. 1:00 90% 35 km
Sa, 04.02. 19:00 71% 30 km
Ortszeit Relative Feuchte Sichtweite
Mo, 06.02. 16:00 64% 40 km
Mo, 06.02. 15:50 64% -
Mo, 06.02. 15:40 64% -
Mo, 06.02. 15:30 63% 55 km
Mo, 06.02. 15:20 63% -
Mo, 06.02. 15:10 61% -
Mo, 06.02. 15:00 66% 45 km
Mo, 06.02. 14:30 68% 35 km
Mo, 06.02. 14:00 64% 40 km
Mo, 06.02. 13:30 70% 40 km
Mo, 06.02. 13:00 68% 45 km
Ortszeit Niederschlagsmenge Niederschlagsart
Mo, 06.02. 13:00 0.0 l/m2 in 6 Std. -
Mo, 06.02. 7:00 0.0 l/m2 in 12 Std. -
Mo, 06.02. 1:00 0.0 l/m2 in 6 Std. -
So, 05.02. 19:00 0.0 l/m2 in 12 Std. -
So, 05.02. 13:00 0.0 l/m2 in 6 Std. -
So, 05.02. 7:00 0.0 l/m2 in 12 Std. -
So, 05.02. 1:00 0.0 l/m2 in 6 Std. -
Sa, 04.02. 19:00 0.1 l/m2 in 12 Std. -
Ortszeit Niederschlagsmenge Niederschlagsart
Mo, 06.02. 16:00 0.0 l/m2 in 1 Std. -
Mo, 06.02. 15:50 keine Meldung -
Mo, 06.02. 15:40 keine Meldung -
Mo, 06.02. 15:30 0.0 l/m2 in 30 Min -
Mo, 06.02. 15:20 keine Meldung -
Mo, 06.02. 15:10 keine Meldung -
Mo, 06.02. 15:00 0.0 l/m2 in 1 Std. -
Mo, 06.02. 14:30 0.0 l/m2 in 30 Min -
Mo, 06.02. 14:00 0.0 l/m2 in 1 Std. -
Mo, 06.02. 13:30 0.0 l/m2 in 30 Min -
Mo, 06.02. 13:00 0.0 l/m2 in 1 Std. -
Ortszeit Stärke Spitze Richtung
km/h Bft. km/h Grad Sektor
Mo, 06.02. 13:00 2 1 7 310° NW
Mo, 06.02. 7:00 4 1 14 150° SO
Mo, 06.02. 1:00 2 1 11 40° NO
So, 05.02. 19:00 4 1 11 360° N
So, 05.02. 13:00 4 1 7 220° SW
So, 05.02. 7:00 4 1 11 130° SO
So, 05.02. 1:00 4 1 7 330° NW
Sa, 04.02. 19:00 0 0 29 - -
Ortszeit Stärke Spitze Richtung
km/h Bft. km/h Grad Sektor
Mo, 06.02. 16:00 2 1 7 260° W
Mo, 06.02. 15:50 2 1 - 260° W
Mo, 06.02. 15:40 4 1 - 240° SW
Mo, 06.02. 15:30 4 1 7 230° SW
Mo, 06.02. 15:20 4 1 - 230° SW
Mo, 06.02. 15:10 2 1 - 220° SW
Mo, 06.02. 15:00 6 1 9 230° SW
Mo, 06.02. 14:30 4 1 7 220° SW
Mo, 06.02. 14:00 0 0 7 - -
Mo, 06.02. 13:30 4 1 7 250° W
Mo, 06.02. 13:00 2 1 6 310° NW
Ortszeit Untergrenze Bedeckung Gattung
total tief tief mittel hoch
Mo, 06.02. 13:00 2400 m 8/8 8/8 - - -
Mo, 06.02. 7:00 - 0/8 0/8 - - -
Mo, 06.02. 1:00 4200 m 1/8 1/8 - - -
So, 05.02. 19:00 4200 m 8/8 8/8 - - -
So, 05.02. 13:00 4200 m 8/8 8/8 - - -
So, 05.02. 7:00 4200 m 5/8 5/8 - - -
So, 05.02. 1:00 - 0/8 0/8 - - -
Sa, 04.02. 19:00 1230 m 7/8 7/8 - - -
Ortszeit Bedeckungsgrad in Achtel und Wolkenuntergrenze
Mo, 06.02. 16:00 8(2400m)
Mo, 06.02. 15:50 8(2400m)
Mo, 06.02. 15:40 8
Mo, 06.02. 15:30 7(2400m) 7(3000m)
Mo, 06.02. 15:20 7(2400m) 7(3000m)
Mo, 06.02. 15:10 7
Mo, 06.02. 15:00 7(3000m)
Mo, 06.02. 14:30 8(2700m)
Mo, 06.02. 14:00 7(2400m) 8(3000m)
Mo, 06.02. 13:30 8(2400m)
Mo, 06.02. 13:00 8(2400m) 8(3000m)
Ortszeit Luftdruck NN (hPa) Tendenz (hPa in 3 Std.)
Mo, 06.02. 13:00 1039 - 1,3
Mo, 06.02. 7:00 1044 - 0,5
Mo, 06.02. 1:00 1043 + 1,5
So, 05.02. 19:00 1038 + 0,9
So, 05.02. 13:00 1037 - 2,0
So, 05.02. 7:00 1042 - 0,1
So, 05.02. 1:00 1042 + 0,3
Sa, 04.02. 19:00 1039 + 1,3
Ortszeit Luftdruck NN (hPa) Tendenz (hPa in 3 Std.)
Mo, 06.02. 16:00 1037 - 1,0
Mo, 06.02. 15:50 1037 keine Meldung
Mo, 06.02. 15:40 1037 keine Meldung
Mo, 06.02. 15:30 1037 - 1,2
Mo, 06.02. 15:20 1037 keine Meldung
Mo, 06.02. 15:10 1037 keine Meldung
Mo, 06.02. 15:00 1037 - 1,5
Mo, 06.02. 14:30 1037 - 1,4
Mo, 06.02. 14:00 1037 - 1,7
Mo, 06.02. 13:30 1038 - 1,8
Mo, 06.02. 13:00 1039 - 1,3
Ortszeit Schneehöhe (cm)
Mo, 06.02. 13:00 23
Mo, 06.02. 7:00 23
Mo, 06.02. 1:00 23
So, 05.02. 19:00 24
So, 05.02. 13:00 24
So, 05.02. 7:00 24
So, 05.02. 1:00 24
Sa, 04.02. 19:00 24
Ortszeit Schneehöhe (cm)
Mo, 06.02. 16:00 23
Mo, 06.02. 15:50 23
Mo, 06.02. 15:40 23
Mo, 06.02. 15:30 23
Mo, 06.02. 15:20 23
Mo, 06.02. 15:10 23
Mo, 06.02. 15:00 23
Mo, 06.02. 14:30 23
Mo, 06.02. 14:00 23
Mo, 06.02. 13:30 23
Mo, 06.02. 13:00 23
Link zu dieser Seite / Seite empfehlen

Das Wetter in ...